| time (UTC) | temp F | wind direction | speed MPH | gust MPH | rain 1hr in | rain 24hr in | rain mn in | humidity % | barometer mb |
| 20260903123051 | 57 | 117 | 0.0 | 2.0 | 0.00 | 0.00 | 0.00 | 12 | 1006.1 |
| 20260903121545 | 57 | 117 | 2.0 | 4.0 | 0.00 | 0.00 | 0.00 | 12 | 1006.3 |
| 20260903120053 | 57 | 110 | 0.0 | 4.0 | 0.00 | 0.00 | 0.00 | 11 | 1006.4 |
| 20260903114534 | 56 | 113 | 1.0 | 7.0 | 0.00 | 0.00 | 0.00 | 11 | 1006.3 |
| 20260903113028 | 57 | 113 | 1.0 | 6.0 | 0.00 | 0.00 | 0.00 | 11 | 1006.5 |
| 20260903111522 | 57 | 127 | 2.0 | 6.0 | 0.00 | 0.00 | 0.00 | 10 | 1006.6 |
| 20260903110017 | 57 | 110 | 1.0 | 4.0 | 0.00 | 0.00 | 0.00 | 11 | 1006.7 |
| 20260903104511 | 56 | 108 | 1.0 | 4.0 | 0.00 | 0.00 | 0.00 | 11 | 1006.5 |
| 20260903103005 | 56 | 137 | 0.0 | 3.0 | 0.00 | 0.00 | 0.00 | 12 | 1006.7 |
| 20260903101602 | 57 | 110 | 1.0 | 5.0 | 0.00 | 0.00 | 0.00 | 11 | 1006.8 |
| 20260903100053 | 57 | 108 | 0.0 | 3.0 | 0.00 | 0.00 | 0.00 | 10 | 1006.6 |
| 20260903094621 | 57 | 103 | 1.0 | 5.0 | 0.00 | 0.00 | 0.00 | 11 | 1006.7 |
| 20260903093045 | 57 | 117 | 0.0 | 3.0 | 0.00 | 0.00 | 0.00 | 11 | 1007.0 |
| 20260903091540 | 58 | 180 | 1.0 | 3.0 | 0.00 | 0.00 | 0.00 | 10 | 1007.0 |
| 20260903090028 | 57 | 105 | 0.0 | 3.0 | 0.00 | 0.00 | 0.00 | 10 | 1007.1 |
| 20260903084531 | 58 | 115 | 1.0 | 4.0 | 0.00 | 0.00 | 0.00 | 10 | 1007.4 |
| 20260903083025 | 58 | 110 | 3.0 | 6.0 | 0.00 | 0.00 | 0.00 | 11 | 1007.5 |
| 20260903081517 | 58 | 120 | 2.0 | 5.0 | 0.00 | 0.00 | 0.00 | 10 | 1007.5 |
| 20260903080034 | 58 | 118 | 2.0 | 4.0 | 0.00 | 0.00 | 0.00 | 12 | 1007.6 |
| 20260903074512 | 58 | 120 | 1.0 | 3.0 | 0.00 | 0.00 | 0.00 | 11 | 1007.6 |
| 20260903073020 | 58 | 117 | 0.0 | 2.0 | 0.00 | 0.00 | 0.00 | 11 | 1007.5 |
| 20260903071505 | 58 | 108 | 1.0 | 6.0 | 0.00 | 0.00 | 0.00 | 10 | 1007.5 |
| 20260903064606 | 58 | 131 | 0.0 | 2.0 | 0.00 | 0.00 | 0.00 | 10 | 1007.6 |
| 20260903063055 | 58 | 120 | 1.0 | 3.0 | 0.00 | 0.00 | 0.00 | 10 | 1007.6 |
| 20260903061555 | 58 | 112 | 0.0 | 2.0 | 0.00 | 0.00 | 0.00 | 10 | 1007.6 |
| 20260903060055 | 58 | 112 | 0.0 | 4.0 | 0.00 | 0.00 | 0.00 | 16 | 1007.5 |
| 20260903054552 | 57 | 115 | 0.0 | 2.0 | 0.00 | 0.00 | 0.00 | 15 | 1007.6 |
| 20260903053102 | 57 | 115 | 1.0 | 3.0 | 0.00 | 0.00 | 0.00 | 17 | 1007.7 |
| 20260903051549 | 56 | 122 | 0.0 | 2.0 | 0.00 | 0.00 | 0.00 | 32 | 1007.7 |
| 20260903050045 | 56 | 108 | 0.0 | 2.0 | 0.00 | 0.00 | 0.00 | 33 | 1007.8 |
| 20260903044543 | 57 | 110 | 2.0 | 5.0 | 0.00 | 0.00 | 0.00 | 26 | 1007.5 |
| 20260903043141 | 57 | 105 | 2.0 | 5.0 | 0.00 | 0.00 | 0.00 | 24 | 1007.3 |
| 20260903041545 | 58 | 106 | 2.0 | 7.0 | 0.00 | 0.00 | 0.00 | 20 | 1007.5 |
| 20260903040041 | 58 | 102 | 3.0 | 8.0 | 0.00 | 0.00 | 0.00 | 18 | 1007.1 |
| 20260903034535 | 57 | 117 | 0.0 | 2.0 | 0.00 | 0.00 | 0.00 | 21 | 1006.8 |
| 20260903033032 | 57 | 139 | 2.0 | 4.0 | 0.00 | 0.00 | 0.00 | 38 | 1007.0 |
| 20260903031529 | 55 | 119 | 1.0 | 6.0 | 0.00 | 0.00 | 0.00 | 42 | 1007.0 |
| 20260903030033 | 55 | 107 | 2.0 | 7.0 | 0.00 | 0.00 | 0.00 | 42 | 1006.9 |
| 20260903024527 | 55 | 120 | 1.0 | 3.0 | 0.00 | 0.00 | 0.00 | 43 | 1007.0 |
| 20260903023025 | 56 | 104 | 1.0 | 4.0 | 0.00 | 0.00 | 0.00 | 43 | 1006.8 |
| 20260903021522 | 57 | 104 | 3.0 | 6.0 | 0.00 | 0.00 | 0.00 | 40 | 1007.0 |
| 20260903020018 | 59 | 122 | 4.0 | 10.0 | 0.00 | 0.00 | 0.00 | 37 | 1007.2 |
| 20260903014515 | 61 | 101 | 3.0 | 10.0 | 0.00 | 0.00 | 0.00 | 33 | 1007.2 |
| 20260903013013 | 63 | 109 | 3.0 | 9.0 | 0.00 | 0.00 | 0.00 | 30 | 1007.4 |
| 20260903011512 | 63 | 97 | 2.0 | 12.0 | 0.00 | 0.00 | 0.00 | 30 | 1007.5 |
| 20260903010011 | 64 | 94 | 5.0 | 9.0 | 0.00 | 0.00 | 0.00 | 28 | 1007.4 |
| 20260903004507 | 64 | 83 | 5.0 | 10.0 | 0.00 | 0.00 | 0.00 | 25 | 1007.3 |
| 20260903003005 | 64 | 97 | 4.0 | 9.0 | 0.00 | 0.00 | 0.00 | 25 | 1007.5 |
| 20260903001504 | 65 | 99 | 2.0 | 11.0 | 0.00 | 0.00 | 0.00 | 24 | 1007.5 |
| 20260903000002 | 65 | 91 | 4.0 | 10.0 | 0.00 | 0.00 | 0.00 | 25 | 1007.5 |
| 20260902234502 | 64 | 98 | 6.0 | 13.0 | 0.00 | 0.00 | 0.00 | 25 | 1007.7 |
| 20260902233103 | 64 | 92 | 5.0 | 12.0 | 0.00 | 0.00 | 0.00 | 25 | 1007.7 |
| 20260902231557 | 65 | 96 | 6.0 | 10.0 | 0.00 | 0.00 | 0.00 | 26 | 1007.8 |
| 20260902230106 | 66 | 99 | 4.0 | 12.0 | 0.00 | 0.00 | 0.00 | 27 | 1007.8 |
| 20260902224557 | 65 | 96 | 4.0 | 10.0 | 0.00 | 0.00 | 0.00 | 25 | 1007.9 |
| 20260902223053 | 64 | 94 | 2.0 | 11.0 | 0.00 | 0.00 | 0.00 | 26 | 1008.1 |
| 20260902221552 | 65 | 108 | 4.0 | 11.0 | 0.00 | 0.00 | 0.00 | 25 | 1008.3 |
| 20260902220054 | 65 | 64 | 4.0 | 10.0 | 0.00 | 0.00 | 0.00 | 24 | 1008.3 |
| 20260902214544 | 65 | 69 | 3.0 | 11.0 | 0.00 | 0.00 | 0.00 | 24 | 1008.4 |
| 20260902213048 | 65 | 71 | 4.0 | 11.0 | 0.00 | 0.00 | 0.00 | 21 | 1008.7 |
| 20260902211542 | 64 | 73 | 6.0 | 15.0 | 0.00 | 0.00 | 0.00 | 26 | 1008.6 |
| 20260902210039 | 65 | 82 | 6.0 | 13.0 | 0.00 | 0.00 | 0.00 | 24 | 1008.9 |
| 20260902204535 | 66 | 104 | 5.0 | 11.0 | 0.00 | 0.00 | 0.00 | 20 | 1009.0 |
| 20260902203032 | 65 | 75 | 3.0 | 11.0 | 0.00 | 0.00 | 0.00 | 18 | 1009.2 |
| 20260902201530 | 65 | 86 | 3.0 | 10.0 | 0.00 | 0.00 | 0.00 | 15 | 1009.0 |
| 20260902200030 | 66 | 110 | 4.0 | 9.0 | 0.00 | 0.00 | 0.00 | 14 | 1009.3 |
| 20260902194525 | 66 | 94 | 3.0 | 9.0 | 0.00 | 0.00 | 0.00 | 15 | 1009.3 |
| 20260902193025 | 66 | 115 | 2.0 | 10.0 | 0.00 | 0.00 | 0.00 | 14 | 1009.4 |
| 20260902191522 | 65 | 39 | 3.0 | 13.0 | 0.00 | 0.00 | 0.00 | 14 | 1009.4 |
| 20260902190028 | 66 | 111 | 3.0 | 11.0 | 0.00 | 0.00 | 0.00 | 14 | 1009.5 |
| 20260902184515 | 65 | 84 | 1.0 | 9.0 | 0.00 | 0.00 | 0.00 | 13 | 1009.6 |
| 20260902183014 | 65 | 105 | 4.0 | 11.0 | 0.00 | 0.00 | 0.00 | 15 | 1009.6 |
| 20260902181511 | 65 | 97 | 3.0 | 11.0 | 0.00 | 0.00 | 0.00 | 15 | 1009.9 |
| 20260902180013 | 64 | 96 | 2.0 | 10.0 | 0.00 | 0.00 | 0.00 | 15 | 1009.9 |
| 20260902174500 | 64 | 96 | 4.0 | 10.0 | 0.00 | 0.00 | 0.00 | 17 | 1009.7 |
| 20260902173100 | 63 | 94 | 3.0 | 8.0 | 0.00 | 0.00 | 0.00 | 17 | 1009.6 |
| 20260902171618 | 64 | 51 | 2.0 | 7.0 | 0.00 | 0.00 | 0.00 | 17 | 1009.7 |
| 20260902170054 | 63 | 129 | 3.0 | 8.0 | 0.00 | 0.00 | 0.00 | 17 | 1009.5 |
| 20260902164553 | 63 | 110 | 3.0 | 11.0 | 0.00 | 0.00 | 0.00 | 17 | 1009.5 |
| 20260902163050 | 63 | 93 | 2.0 | 8.0 | 0.00 | 0.00 | 0.00 | 16 | 1009.3 |
| 20260902161548 | 62 | 103 | 4.0 | 11.0 | 0.00 | 0.00 | 0.00 | 16 | 1009.4 |
| 20260902160045 | 62 | 105 | 4.0 | 10.0 | 0.00 | 0.00 | 0.00 | 16 | 1009.1 |
| 20260902154540 | 62 | 113 | 3.0 | 9.0 | 0.00 | 0.00 | 0.00 | 15 | 1009.1 |
| 20260902153038 | 61 | 105 | 2.0 | 10.0 | 0.00 | 0.00 | 0.00 | 15 | 1009.0 |
| 20260902151536 | 61 | 111 | 1.0 | 4.0 | 0.00 | 0.00 | 0.00 | 16 | 1008.7 |
| 20260902150033 | 61 | 136 | 2.0 | 6.0 | 0.00 | 0.00 | 0.00 | 16 | 1008.8 |
| 20260902144531 | 60 | 120 | 1.0 | 7.0 | 0.00 | 0.00 | 0.00 | 16 | 1008.9 |
| 20260902143023 | 59 | 110 | 1.0 | 5.0 | 0.00 | 0.00 | 0.00 | 18 | 1008.9 |
| 20260902141525 | 58 | 118 | 1.0 | 5.0 | 0.00 | 0.00 | 0.00 | 17 | 1008.7 |
| 20260902140015 | 57 | 155 | 2.0 | 6.0 | 0.00 | 0.00 | 0.00 | 19 | 1008.4 |
| 20260902134516 | 56 | 124 | 3.0 | 8.0 | 0.00 | 0.00 | 0.00 | 19 | 1008.5 |
| 20260902133008 | 56 | 123 | 1.0 | 4.0 | 0.00 | 0.00 | 0.00 | 20 | 1008.2 |
| 20260902131505 | 56 | 108 | 1.0 | 3.0 | 0.00 | 0.00 | 0.00 | 22 | 1008.2 |
| 20260902130002 | 55 | 114 | 0.0 | 2.0 | 0.00 | 0.00 | 0.00 | 26 | 1008.3 |
| 20260902124600 | 55 | 101 | 0.0 | 3.0 | 0.00 | 0.00 | 0.00 | 28 | 1008.2 |